GW2490 Weather Reports


Display with metric or nautical units.
time (UTC)temp
F
wind
direction
speed
MPH
gust
MPH
rain 1hr
in
rain 24hr
in
rain mn
in
humidity
%
barometer
mb
20260906225328 0 0.0 0.0 0.00 0.00 0.00
20260906224958 69 305 2.0 8.0 0.00 0.00 0.00 57 1014.5
20260906224458 68 295 3.0 7.0 0.00 0.00 0.00 60 1014.5
20260906224325 0 0.0 0.0 0.00 0.00 0.00
20260906223957 68 286 5.0 8.0 0.00 0.00 0.00 58 1014.6
20260906223825 0 0.0 0.0 0.00 0.00 0.00
20260906223457 68 295 6.0 9.0 0.00 0.00 0.00 58 1014.5
20260906222958 68 308 4.0 7.0 0.00 0.00 0.00 59 1014.5
20260906222825 0 0.0 0.0 0.00 0.00 0.00
20260906222458 67 305 4.0 8.0 0.00 0.00 0.00 60 1014.5
20260906222325 0 0.0 0.0 0.00 0.00 0.00
20260906221957 67 302 6.0 9.0 0.00 0.00 0.00 62 1014.6
20260906221457 67 307 4.0 8.0 0.00 0.00 0.00 63 1014.6
20260906221325 0 0.0 0.0 0.00 0.00 0.00
20260906220957 67 310 4.0 7.0 0.00 0.00 0.00 63 1014.6
20260906220826 0 0.0 0.0 0.00 0.00 0.00
20260906220457 66 310 6.0 11.0 0.00 0.00 0.00 62 1014.5
20260906220322 0 0.0 0.0 0.00 0.00 0.00
20260906215957 66 312 5.0 8.0 0.00 0.00 0.00 62 1014.6
20260906215823 0 0.0 0.0 0.00 0.00 0.00
20260906215457 66 288 4.0 9.0 0.00 0.00 0.00 63 1014.6
20260906215322 0 0.0 0.0 0.00 0.00 0.00
20260906214957 66 285 3.0 6.0 0.00 0.00 0.00 63 1014.6
20260906214822 0 0.0 0.0 0.00 0.00 0.00
20260906214457 66 300 6.0 8.0 0.00 0.00 0.00 64 1014.7
20260906214320 0 0.0 0.0 0.00 0.00 0.00
20260906213959 66 294 5.0 9.0 0.00 0.00 0.00 64 1014.7
20260906213820 0 0.0 0.0 0.00 0.00 0.00
20260906213458 66 292 6.0 10.0 0.00 0.00 0.00 63 1014.7
20260906213320 0 0.0 0.0 0.00 0.00 0.00
20260906212957 66 282 6.0 10.0 0.00 0.00 0.00 63 1014.8
20260906212457 65 324 4.0 7.0 0.00 0.00 0.00 65 1014.8
20260906212320 0 0.0 0.0 0.00 0.00 0.00
20260906211957 65 301 5.0 10.0 0.00 0.00 0.00 66 1014.9
20260906211457 65 303 7.0 11.0 0.00 0.00 0.00 64 1014.9
20260906211321 0 0.0 0.0 0.00 0.00 0.00
20260906210957 65 301 6.0 12.0 0.00 0.00 0.00 65 1015.0
20260906210820 0 0.0 0.0 0.00 0.00 0.00
20260906210457 65 284 4.0 8.0 0.00 0.00 0.00 65 1014.9
20260906210320 0 0.0 0.0 0.00 0.00 0.00
20260906205957 65 285 4.0 10.0 0.00 0.00 0.00 67 1015.0
20260906205817 0 0.0 0.0 0.00 0.00 0.00
20260906205457 65 304 4.0 9.0 0.00 0.00 0.00 66 1014.9
20260906205317 0 0.0 0.0 0.00 0.00 0.00
20260906204957 65 258 2.0 5.0 0.00 0.00 0.00 67 1014.9
20260906204818 0 0.0 0.0 0.00 0.00 0.00
20260906204457 64 297 4.0 8.0 0.00 0.00 0.00 68 1014.9
20260906204317 0 0.0 0.0 0.00 0.00 0.00
20260906203957 64 308 5.0 8.0 0.00 0.00 0.00 68 1014.9
20260906203818 0 0.0 0.0 0.00 0.00 0.00
20260906203457 64 301 5.0 9.0 0.00 0.00 0.00 69 1015.0
20260906203317 0 0.0 0.0 0.00 0.00 0.00
20260906202957 64 308 5.0 10.0 0.00 0.00 0.00 70 1015.1
20260906202818 0 0.0 0.0 0.00 0.00 0.00
20260906202457 64 300 4.0 9.0 0.00 0.00 0.00 70 1015.1
20260906202317 0 0.0 0.0 0.00 0.00 0.00
20260906201957 63 291 5.0 10.0 0.00 0.00 0.00 71 1015.0
20260906201816 0 0.0 0.0 0.00 0.00 0.00
20260906201457 63 286 5.0 9.0 0.00 0.00 0.00 71 1015.1
20260906201316 0 0.0 0.0 0.00 0.00 0.00
20260906200957 63 277 6.0 10.0 0.00 0.00 0.00 71 1015.1
20260906200817 0 0.0 0.0 0.00 0.00 0.00
20260906200457 63 308 5.0 7.0 0.00 0.00 0.00 70 1015.1
20260906200315 0 0.0 0.0 0.00 0.00 0.00
20260906195957 62 304 4.0 6.0 0.00 0.00 0.00 73 1015.2
20260906195812 0 0.0 0.0 0.00 0.00 0.00
20260906195457 62 305 6.0 12.0 0.00 0.00 0.00 74 1015.3
20260906195326 0 0.0 0.0 0.00 0.00 0.00
20260906194957 62 315 4.0 6.0 0.00 0.00 0.00 75 1015.4
20260906194457 62 302 7.0 14.0 0.00 0.00 0.00 74 1015.4
20260906194313 0 0.0 0.0 0.00 0.00 0.00
20260906193900 62 308 6.0 9.0 0.00 0.00 0.00 73 1015.3
20260906193813 0 0.0 0.0 0.00 0.00 0.00
20260906193732 62 306 6.0 9.0 0.00 0.00 0.00 74 1015.4
20260906193313 0 0.0 0.0 0.00 0.00 0.00
20260906192957 62 283 4.0 8.0 0.00 0.00 0.00 72 1015.4
20260906192457 62 305 6.0 12.0 0.00 0.00 0.00 72 1015.4
20260906192313 0 0.0 0.0 0.00 0.00 0.00
20260906191958 62 290 5.0 9.0 0.00 0.00 0.00 72 1015.4
20260906191813 0 0.0 0.0 0.00 0.00 0.00
20260906191458 62 300 5.0 8.0 0.00 0.00 0.00 71 1015.5
20260906191314 0 0.0 0.0 0.00 0.00 0.00
20260906190957 61 284 5.0 10.0 0.00 0.00 0.00 73 1015.5
20260906190813 0 0.0 0.0 0.00 0.00 0.00
20260906190458 61 292 5.0 8.0 0.00 0.00 0.00 73 1015.5
20260906190315 0 0.0 0.0 0.00 0.00 0.00
20260906185957 61 303 6.0 9.0 0.00 0.00 0.00 75 1015.6
20260906185810 0 0.0 0.0 0.00 0.00 0.00
20260906185457 61 315 5.0 9.0 0.00 0.00 0.00 76 1015.6
20260906185310 0 0.0 0.0 0.00 0.00 0.00
20260906184957 61 316 3.0 6.0 0.00 0.00 0.00 77 1015.7
20260906184810 0 0.0 0.0 0.00 0.00 0.00
20260906184457 60 308 6.0 9.0 0.00 0.00 0.00 78 1015.7
20260906184311 0 0.0 0.0 0.00 0.00 0.00
20260906183957 60 303 5.0 8.0 0.00 0.00 0.00 77 1015.7
20260906183811 0 0.0 0.0 0.00 0.00 0.00
20260906183457 60 311 6.0 9.0 0.00 0.00 0.00 77 1015.8
20260906183311 0 0.0 0.0 0.00 0.00 0.00
20260906182959 60 296 6.0 8.0 0.00 0.00 0.00 78 1015.8
20260906182811 0 0.0 0.0 0.00 0.00 0.00
20260906182457 60 308 7.0 10.0 0.00 0.00 0.00 79 1015.8
20260906182311 0 0.0 0.0 0.00 0.00 0.00
20260906181957 60 310 4.0 8.0 0.00 0.00 0.00 78 1015.8
20260906181808 0 0.0 0.0 0.00 0.00 0.00
20260906181458 60 309 5.0 6.0 0.00 0.00 0.00 78 1015.9
20260906181308 0 0.0 0.0 0.00 0.00 0.00
20260906180957 60 314 5.0 6.0 0.00 0.00 0.00 79 1015.9
20260906180805 0 0.0 0.0 0.00 0.00 0.00
20260906180457 60 303 5.0 7.0 0.00 0.00 0.00 79 1015.9
20260906180305 0 0.0 0.0 0.00 0.00 0.00
20260906175957 60 293 4.0 6.0 0.00 0.00 0.00 79 1015.8
20260906175803 0 0.0 0.0 0.00 0.00 0.00
20260906175457 60 301 5.0 8.0 0.00 0.00 0.00 79 1015.9
20260906175306 0 0.0 0.0 0.00 0.00 0.00
20260906174957 59 306 4.0 8.0 0.00 0.00 0.00 80 1015.8
20260906174803 0 0.0 0.0 0.00 0.00 0.00
20260906174458 59 301 4.0 7.0 0.00 0.00 0.00 81 1015.7
20260906174300 0 0.0 0.0 0.00 0.00 0.00
20260906173959 58 315 3.0 5.0 0.00 0.00 0.00 82 1015.8
20260906173759 0 0.0 0.0 0.00 0.00 0.00
20260906173458 58 307 4.0 6.0 0.00 0.00 0.00 82 1016.0
20260906173300 0 0.0 0.0 0.00 0.00 0.00
20260906172957 58 300 2.0 6.0 0.00 0.00 0.00 83 1016.0
20260906172457 57 315 5.0 8.0 0.00 0.00 0.00 83 1016.1
20260906172301 0 0.0 0.0 0.00 0.00 0.00
20260906171957 57 307 5.0 8.0 0.00 0.00 0.00 83 1016.2
20260906171800 0 0.0 0.0 0.00 0.00 0.00
20260906171457 57 313 3.0 5.0 0.00 0.00 0.00 83 1016.2
20260906171300 0 0.0 0.0 0.00 0.00 0.00
20260906170957 57 316 4.0 6.0 0.00 0.00 0.00 84 1016.2
20260906170758 0 0.0 0.0 0.00 0.00 0.00
20260906170457 57 311 6.0 9.0 0.00 0.00 0.00 83 1016.1
20260906170254 0 0.0 0.0 0.00 0.00 0.00
20260906165957 57 300 4.0 8.0 0.00 0.00 0.00 84 1016.2
20260906165754 0 0.0 0.0 0.00 0.00 0.00
20260906165457 57 313 4.0 7.0 0.00 0.00 0.00 84 1016.2
20260906165254 0 0.0 0.0 0.00 0.00 0.00
20260906164957 57 305 2.0 6.0 0.00 0.00 0.00 83 1016.4
20260906164754 0 0.0 0.0 0.00 0.00 0.00
20260906164457 57 306 3.0 5.0 0.00 0.00 0.00 84 1016.2
20260906164254 0 0.0 0.0 0.00 0.00 0.00
20260906163957 57 301 3.0 5.0 0.00 0.00 0.00 83 1016.4
20260906163755 0 0.0 0.0 0.00 0.00 0.00
20260906163500 57 301 4.0 6.0 0.00 0.00 0.00 83 1016.5
20260906163255 0 0.0 0.0 0.00 0.00 0.00
20260906162957 57 297 3.0 7.0 0.00 0.00 0.00 83 1016.6
20260906162755 0 0.0 0.0 0.00 0.00 0.00
20260906162457 57 297 2.0 4.0 0.00 0.00 0.00 81 1016.5
20260906162256 0 0.0 0.0 0.00 0.00 0.00
20260906161958 57 321 3.0 5.0 0.00 0.00 0.00 80 1016.2
20260906161752 0 0.0 0.0 0.00 0.00 0.00
20260906161458 57 309 4.0 7.0 0.00 0.00 0.00 78 1016.4
20260906161257 0 0.0 0.0 0.00 0.00 0.00
20260906160958 57 303 2.0 4.0 0.00 0.00 0.00 76 1016.4
20260906160751 0 0.0 0.0 0.00 0.00 0.00
20260906160457 57 308 3.0 5.0 0.00 0.00 0.00 76 1016.4
20260906160250 0 0.0 0.0 0.00 0.00 0.00
20260906155957 57 306 3.0 4.0 0.00 0.00 0.00 74 1016.4
20260906155746 0 0.0 0.0 0.00 0.00 0.00
20260906155459 57 293 3.0 5.0 0.00 0.00 0.00 73 1016.4
20260906155247 0 0.0 0.0 0.00 0.00 0.00
20260906154957 57 309 4.0 5.0 0.00 0.00 0.00 73 1016.4
20260906154744 0 0.0 0.0 0.00 0.00 0.00
20260906154458 57 310 2.0 4.0 0.00 0.00 0.00 73 1016.4
20260906154244 0 0.0 0.0 0.00 0.00 0.00
20260906153957 57 284 3.0 8.0 0.00 0.00 0.00 73 1016.5
20260906153741 0 0.0 0.0 0.00 0.00 0.00
20260906153457 57 300 2.0 5.0 0.00 0.00 0.00 73 1016.5
20260906153241 0 0.0 0.0 0.00 0.00 0.00
20260906152957 57 299 1.0 3.0 0.00 0.00 0.00 72 1016.5
20260906152741 0 0.0 0.0 0.00 0.00 0.00
20260906152457 56 323 3.0 5.0 0.00 0.00 0.00 73 1016.5
20260906152242 0 0.0 0.0 0.00 0.00 0.00
20260906151957 56 300 0.0 2.0 0.00 0.00 0.00 73 1016.6
20260906151458 55 305 1.0 2.0 0.00 0.00 0.00 73 1016.7
20260906151241 0 0.0 0.0 0.00 0.00 0.00
20260906150957 55 124 2.0 3.0 0.00 0.00 0.00 74 1016.7
20260906150458 55 288 0.0 1.0 0.00 0.00 0.00 74 1016.8
20260906145958 56 266 2.0 3.0 0.00 0.00 0.00 72 1016.8
20260906145457 56 7 3.0 5.0 0.00 0.00 0.00 70 1016.6
20260906145238 0 0.0 0.0 0.00 0.00 0.00
20260906144957 56 35 0.0 3.0 0.00 0.00 0.00 70 1016.7
20260906144735 0 0.0 0.0 0.00 0.00 0.00
20260906144458 56 188 1.0 3.0 0.00 0.00 0.00 70 1016.6
20260906144235 0 0.0 0.0 0.00 0.00 0.00
20260906143957 56 325 2.0 5.0 0.00 0.00 0.00 70 1016.6
20260906143735 0 0.0 0.0 0.00 0.00 0.00
20260906143457 56 335 3.0 7.0 0.00 0.00 0.00 71 1016.6
20260906143236 0 0.0 0.0 0.00 0.00 0.00
20260906142958 56 342 1.0 3.0 0.00 0.00 0.00 70 1016.7
20260906142735 0 0.0 0.0 0.00 0.00 0.00
20260906142457 56 80 3.0 4.0 0.00 0.00 0.00 69 1016.7
20260906142235 0 0.0 0.0 0.00 0.00 0.00
20260906141957 56 325 1.0 2.0 0.00 0.00 0.00 68 1016.7
20260906141736 0 0.0 0.0 0.00 0.00 0.00
20260906141457 56 93 5.0 7.0 0.00 0.00 0.00 67 1016.6
20260906141238 0 0.0 0.0 0.00 0.00 0.00
20260906140958 57 108 1.0 2.0 0.00 0.00 0.00 66 1016.5
20260906140736 0 0.0 0.0 0.00 0.00 0.00
20260906140457 57 222 1.0 2.0 0.00 0.00 0.00 65 1016.5
20260906140230 0 0.0 0.0 0.00 0.00 0.00
20260906135958 57 206 1.0 3.0 0.00 0.00 0.00 66 1016.4
20260906135730 0 0.0 0.0 0.00 0.00 0.00
20260906135457 57 230 0.0 0.0 0.00 0.00 0.00 66 1016.1
20260906134958 57 108 1.0 3.0 0.00 0.00 0.00 66 1016.1
20260906134730 0 0.0 0.0 0.00 0.00 0.00
20260906134457 57 43 1.0 2.0 0.00 0.00 0.00 66 1016.0
20260906134227 0 0.0 0.0 0.00 0.00 0.00
20260906133958 57 122 1.0 2.0 0.00 0.00 0.00 67 1016.0
20260906133724 0 0.0 0.0 0.00 0.00 0.00
20260906133457 56 106 2.0 3.0 0.00 0.00 0.00 68 1016.0
20260906132957 56 300 0.0 2.0 0.00 0.00 0.00 71 1016.0
20260906132724 0 0.0 0.0 0.00 0.00 0.00
20260906132457 57 322 2.0 3.0 0.00 0.00 0.00 68 1016.0
20260906132223 0 0.0 0.0 0.00 0.00 0.00
20260906131957 58 280 0.0 2.0 0.00 0.00 0.00 65 1015.9
20260906131723 0 0.0 0.0 0.00 0.00 0.00
20260906131457 58 343 1.0 3.0 0.00 0.00 0.00 65 1015.8
20260906131224 0 0.0 0.0 0.00 0.00 0.00
20260906131001 58 200 1.0 2.0 0.00 0.00 0.00 65 1015.8
20260906130723 0 0.0 0.0 0.00 0.00 0.00
20260906130457 58 323 2.0 4.0 0.00 0.00 0.00 66 1015.9
20260906125957 58 290 1.0 1.0 0.00 0.00 0.00 66 1016.0
20260906125723 0 0.0 0.0 0.00 0.00 0.00
20260906125457 58 358 0.0 2.0 0.00 0.00 0.00 64 1016.0
20260906125223 0 0.0 0.0 0.00 0.00 0.00
20260906125003 59 77 3.0 5.0 0.00 0.00 0.00 63 1015.9
20260906124720 0 0.0 0.0 0.00 0.00 0.00
20260906124458 59 108 2.0 4.0 0.00 0.00 0.00 63 1016.0
20260906124219 0 0.0 0.0 0.00 0.00 0.00
20260906123958 58 105 3.0 5.0 0.00 0.00 0.00 63 1016.0
20260906123719 0 0.0 0.0 0.00 0.00 0.00
20260906123457 58 62 2.0 3.0 0.00 0.00 0.00 63 1016.0
20260906123219 0 0.0 0.0 0.00 0.00 0.00
20260906122958 58 134 0.0 2.0 0.00 0.00 0.00 63 1016.1
20260906122720 0 0.0 0.0 0.00 0.00 0.00
20260906122457 58 108 2.0 3.0 0.00 0.00 0.00 63 1016.1
20260906122221 0 0.0 0.0 0.00 0.00 0.00
20260906121957 58 81 1.0 2.0 0.00 0.00 0.00 63 1016.2
20260906121720 0 0.0 0.0 0.00 0.00 0.00
20260906121457 58 117 0.0 2.0 0.00 0.00 0.00 63 1016.2
20260906121220 0 0.0 0.0 0.00 0.00 0.00
20260906120959 58 95 2.0 4.0 0.00 0.00 0.00 64 1016.2
20260906120721 0 0.0 0.0 0.00 0.00 0.00
20260906120457 58 85 1.0 2.0 0.00 0.00 0.00 65 1016.4
20260906120220 0 0.0 0.0 0.00 0.00 0.00
20260906115958 58 108 1.0 3.0 0.00 0.00 0.00 63 1016.4
20260906115717 0 0.0 0.0 0.00 0.00 0.00
20260906115457 57 59 2.0 3.0 0.00 0.00 0.00 65 1016.2
20260906115217 0 0.0 0.0 0.00 0.00 0.00
20260906114957 57 59 1.0 2.0 0.00 0.00 0.00 66 1016.4
20260906114718 0 0.0 0.0 0.00 0.00 0.00
20260906114457 56 358 1.0 2.0 0.00 0.00 0.00 69 1016.4
20260906114215 0 0.0 0.0 0.00 0.00 0.00
20260906113958 57 51 1.0 2.0 0.00 0.00 0.00 69 1016.4
20260906113457 57 347 0.0 1.0 0.00 0.00 0.00 68 1016.4
20260906113215 0 0.0 0.0 0.00 0.00 0.00
20260906112957 57 306 2.0 3.0 0.00 0.00 0.00 66 1016.2
20260906112716 0 0.0 0.0 0.00 0.00 0.00
20260906112457 57 303 0.0 2.0 0.00 0.00 0.00 68 1016.4
20260906112215 0 0.0 0.0 0.00 0.00 0.00
20260906111957 57 67 0.0 2.0 0.00 0.00 0.00 68 1016.4
20260906111715 0 0.0 0.0 0.00 0.00 0.00
20260906111457 58 82 1.0 2.0 0.00 0.00 0.00 67 1016.4
20260906111216 0 0.0 0.0 0.00 0.00 0.00
20260906110957 58 127 1.0 3.0 0.00 0.00 0.00 66 1016.4
20260906110715 0 0.0 0.0 0.00 0.00 0.00
20260906110458 58 288 2.0 2.0 0.00 0.00 0.00 66 1016.2
20260906105957 58 343 2.0 3.0 0.00 0.00 0.00 67 1016.2
20260906105716 0 0.0 0.0 0.00 0.00 0.00
20260906105457 57 308 1.0 3.0 0.00 0.00 0.00 68 1016.4
20260906105217 0 0.0 0.0 0.00 0.00 0.00
20260906104957 57 248 0.0 2.0 0.00 0.00 0.00 69 1016.4
20260906104716 0 0.0 0.0 0.00 0.00 0.00
20260906104458 57 144 0.0 1.0 0.00 0.00 0.00 70 1016.4
20260906104213 0 0.0 0.0 0.00 0.00 0.00
20260906103957 57 60 1.0 2.0 0.00 0.00 0.00 71 1016.4
20260906103458 57 63 0.0 2.0 0.00 0.00 0.00 70 1016.4
20260906103213 0 0.0 0.0 0.00 0.00 0.00
20260906102958 57 65 2.0 4.0 0.00 0.00 0.00 70 1016.2
20260906102457 57 56 1.0 4.0 0.00 0.00 0.00 71 1016.2
20260906102211 0 0.0 0.0 0.00 0.00 0.00
20260906101957 57 83 0.0 2.0 0.00 0.00 0.00 71 1016.2
20260906101710 0 0.0 0.0 0.00 0.00 0.00
20260906101457 57 21 0.0 2.0 0.00 0.00 0.00 71 1016.2
20260906101211 0 0.0 0.0 0.00 0.00 0.00
20260906100957 57 17 1.0 2.0 0.00 0.00 0.00 71 1016.4
20260906100711 0 0.0 0.0 0.00 0.00 0.00
20260906100458 57 53 1.0 2.0 0.00 0.00 0.00 71 1016.4
20260906100211 0 0.0 0.0 0.00 0.00 0.00
20260906095957 57 42 0.0 2.0 0.00 0.00 0.00 71 1016.4
20260906095711 0 0.0 0.0 0.00 0.00 0.00
20260906095457 57 304 0.0 1.0 0.00 0.00 0.00 71 1016.4
20260906095210 0 0.0 0.0 0.00 0.00 0.00
20260906094957 57 26 1.0 2.0 0.00 0.00 0.00 70 1016.4
20260906094457 57 190 0.0 0.0 0.00 0.00 0.00 69 1016.5
20260906094211 0 0.0 0.0 0.00 0.00 0.00
20260906093957 57 26 0.0 1.0 0.00 0.00 0.00 69 1016.4
20260906093711 0 0.0 0.0 0.00 0.00 0.00
20260906093458 57 31 0.0 1.0 0.00 0.00 0.00 69 1016.4
20260906093208 0 0.0 0.0 0.00 0.00 0.00
20260906092958 57 61 0.0 2.0 0.00 0.00 0.00 69 1016.5
20260906092708 0 0.0 0.0 0.00 0.00 0.00
20260906092457 57 310 0.0 2.0 0.00 0.00 0.00 68 1016.5
20260906092205 0 0.0 0.0 0.00 0.00 0.00
20260906091957 57 27 0.0 1.0 0.00 0.00 0.00 68 1016.5
20260906091706 0 0.0 0.0 0.00 0.00 0.00
20260906091457 57 46 1.0 2.0 0.00 0.00 0.00 67 1016.5
20260906091206 0 0.0 0.0 0.00 0.00 0.00
20260906090957 57 36 1.0 2.0 0.00 0.00 0.00 66 1016.5
20260906090707 0 0.0 0.0 0.00 0.00 0.00
20260906090457 57 38 1.0 3.0 0.00 0.00 0.00 66 1016.6
20260906090206 0 0.0 0.0 0.00 0.00 0.00
20260906085957 57 25 2.0 4.0 0.00 0.00 0.00 65 1016.6
20260906085707 0 0.0 0.0 0.00 0.00 0.00
20260906085457 58 34 1.0 2.0 0.00 0.00 0.00 64 1016.7
20260906085206 0 0.0 0.0 0.00 0.00 0.00
20260906084959 58 74 2.0 3.0 0.00 0.00 0.00 63 1016.7
20260906084707 0 0.0 0.0 0.00 0.00 0.00
20260906084457 58 75 2.0 3.0 0.00 0.00 0.00 63 1016.8
20260906084206 0 0.0 0.0 0.00 0.00 0.00
20260906083957 58 19 0.0 2.0 0.00 0.00 0.00 63 1016.8
20260906083704 0 0.0 0.0 0.00 0.00 0.00
20260906083457 58 350 1.0 2.0 0.00 0.00 0.00 63 1016.8
20260906083204 0 0.0 0.0 0.00 0.00 0.00
20260906082957 58 329 2.0 3.0 0.00 0.00 0.00 62 1016.8
20260906082703 0 0.0 0.0 0.00 0.00 0.00
20260906082459 58 312 2.0 2.0 0.00 0.00 0.00 61 1016.8
20260906082204 0 0.0 0.0 0.00 0.00 0.00
20260906081957 58 294 0.0 2.0 0.00 0.00 0.00 65 1016.8
20260906081703 0 0.0 0.0 0.00 0.00 0.00
20260906081458 58 4 0.0 1.0 0.00 0.00 0.00 66 1016.8
20260906080957 59 297 1.0 2.0 0.00 0.00 0.00 64 1016.8
20260906080704 0 0.0 0.0 0.00 0.00 0.00
20260906080458 59 282 0.0 1.0 0.00 0.00 0.00 63 1016.8
20260906080203 0 0.0 0.0 0.00 0.00 0.00
20260906075957 59 313 2.0 3.0 0.00 0.00 0.00 62 1016.8
20260906075704 0 0.0 0.0 0.00 0.00 0.00
20260906075457 59 303 1.0 3.0 0.00 0.00 0.00 63 1016.7
20260906075204 0 0.0 0.0 0.00 0.00 0.00
20260906074957 59 284 0.0 1.0 0.00 0.00 0.00 62 1016.7
20260906074704 0 0.0 0.0 0.00 0.00 0.00
20260906074457 59 320 2.0 4.0 0.00 0.00 0.00 63 1016.7
20260906074203 0 0.0 0.0 0.00 0.00 0.00
20260906073957 58 360 1.0 2.0 0.00 0.00 0.00 63 1016.8
20260906073702 0 0.0 0.0 0.00 0.00 0.00
20260906073458 57 2 1.0 3.0 0.00 0.00 0.00 65 1016.9
20260906073201 0 0.0 0.0 0.00 0.00 0.00
20260906072957 57 28 1.0 2.0 0.00 0.00 0.00 66 1016.9
20260906072702 0 0.0 0.0 0.00 0.00 0.00
20260906072457 57 21 1.0 3.0 0.00 0.00 0.00 67 1016.9
20260906072201 0 0.0 0.0 0.00 0.00 0.00
20260906071957 57 31 1.0 2.0 0.00 0.00 0.00 67 1016.9
20260906071457 58 40 1.0 2.0 0.00 0.00 0.00 66 1016.9
20260906071159 0 0.0 0.0 0.00 0.00 0.00
20260906070957 58 54 2.0 3.0 0.00 0.00 0.00 65 1016.9
20260906070658 0 0.0 0.0 0.00 0.00 0.00
20260906070457 58 346 0.0 1.0 0.00 0.00 0.00 65 1017.0
20260906070159 0 0.0 0.0 0.00 0.00 0.00
20260906065957 58 24 0.0 2.0 0.00 0.00 0.00 65 1017.0
20260906065700 0 0.0 0.0 0.00 0.00 0.00
20260906065457 58 33 1.0 3.0 0.00 0.00 0.00 67 1017.0
20260906065159 0 0.0 0.0 0.00 0.00 0.00
20260906064957 58 318 2.0 4.0 0.00 0.00 0.00 65 1017.0
20260906064457 57 324 2.0 3.0 0.00 0.00 0.00 69 1017.1
20260906063958 57 339 0.0 2.0 0.00 0.00 0.00 70 1017.1
20260906063657 0 0.0 0.0 0.00 0.00 0.00
20260906063457 57 29 0.0 1.0 0.00 0.00 0.00 69 1017.0
20260906063156 0 0.0 0.0 0.00 0.00 0.00
20260906062957 57 39 1.0 2.0 0.00 0.00 0.00 70 1017.0
20260906062656 0 0.0 0.0 0.00 0.00 0.00
20260906062457 57 34 1.0 2.0 0.00 0.00 0.00 71 1016.9
20260906062154 0 0.0 0.0 0.00 0.00 0.00
20260906061957 57 37 2.0 3.0 0.00 0.00 0.00 71 1017.0
20260906061653 0 0.0 0.0 0.00 0.00 0.00
20260906061457 57 43 2.0 4.0 0.00 0.00 0.00 70 1016.9
20260906061154 0 0.0 0.0 0.00 0.00 0.00
20260906060957 58 48 1.0 2.0 0.00 0.00 0.00 69 1016.9
20260906060713 0 0.0 0.0 0.00 0.00 0.00
20260906060458 58 35 1.0 2.0 0.00 0.00 0.00 70 1016.9
20260906060153 0 0.0 0.0 0.00 0.00 0.00
20260906055958 58 26 1.0 3.0 0.00 0.00 0.00 70 1016.9
20260906055654 0 0.0 0.0 0.00 0.00 0.00
20260906055457 58 28 2.0 2.0 0.00 0.00 0.00 70 1016.9
20260906055154 0 0.0 0.0 0.00 0.00 0.00
20260906054958 58 28 1.0 2.0 0.00 0.00 0.00 70 1016.9
20260906054653 0 0.0 0.0 0.00 0.00 0.00
20260906054457 58 30 2.0 3.0 0.00 0.00 0.00 70 1017.0
20260906054154 0 0.0 0.0 0.00 0.00 0.00
20260906053957 58 40 1.0 2.0 0.00 0.00 0.00 69 1017.0
20260906053457 58 32 1.0 3.0 0.00 0.00 0.00 69 1017.1
20260906052957 58 32 1.0 3.0 0.00 0.00 0.00 69 1017.1
20260906052457 58 44 1.0 2.0 0.00 0.00 0.00 70 1017.2
20260906052148 0 0.0 0.0 0.00 0.00 0.00
20260906051957 58 45 1.0 2.0 0.00 0.00 0.00 70 1017.2
20260906051457 58 43 1.0 2.0 0.00 0.00 0.00 70 1017.3
20260906051149 0 0.0 0.0 0.00 0.00 0.00
20260906050957 58 51 1.0 2.0 0.00 0.00 0.00 71 1017.3
20260906050654 0 0.0 0.0 0.00 0.00 0.00
20260906050457 58 52 2.0 2.0 0.00 0.00 0.00 72 1017.3
20260906045958 58 44 2.0 2.0 0.00 0.00 0.00 72 1017.3
20260906045457 58 45 2.0 3.0 0.00 0.00 0.00 71 1017.3
20260906045151 0 0.0 0.0 0.00 0.00 0.00
20260906044957 58 30 2.0 2.0 0.00 0.00 0.00 71 1017.3
20260906044647 0 0.0 0.0 0.00 0.00 0.00
20260906044456 58 34 1.0 2.0 0.00 0.00 0.00 71 1017.4
20260906044146 0 0.0 0.0 0.00 0.00 0.00
20260906043957 58 33 2.0 4.0 0.00 0.00 0.00 71 1017.4
20260906043647 0 0.0 0.0 0.00 0.00 0.00
20260906043458 58 27 1.0 2.0 0.00 0.00 0.00 71 1017.4
20260906043146 0 0.0 0.0 0.00 0.00 0.00
20260906042958 58 38 2.0 2.0 0.00 0.00 0.00 70 1017.4
20260906042457 59 54 1.0 2.0 0.00 0.00 0.00 70 1017.3
20260906042147 0 0.0 0.0 0.00 0.00 0.00
20260906041957 59 41 1.0 2.0 0.00 0.00 0.00 70 1017.3
20260906041646 0 0.0 0.0 0.00 0.00 0.00
20260906041458 59 36 1.0 3.0 0.00 0.00 0.00 70 1017.3
20260906041147 0 0.0 0.0 0.00 0.00 0.00
20260906040957 59 36 1.0 2.0 0.00 0.00 0.00 69 1017.3
20260906040646 0 0.0 0.0 0.00 0.00 0.00
20260906040457 59 24 1.0 2.0 0.00 0.00 0.00 69 1017.3
20260906040147 0 0.0 0.0 0.00 0.00 0.00
20260906035956 59 30 2.0 2.0 0.00 0.00 0.00 69 1017.3
20260906035457 59 29 1.0 2.0 0.00 0.00 0.00 68 1017.2
20260906034646 0 0.0 0.0 0.00 0.00 0.00
20260906034528 59 39 1.0 3.0 0.00 0.00 0.00 68 1017.2
20260906034145 0 0.0 0.0 0.00 0.00 0.00
20260906033957 60 28 1.0 2.0 0.00 0.00 0.00 68 1017.1
20260906033644 0 0.0 0.0 0.00 0.00 0.00
20260906033457 60 33 1.0 3.0 0.00 0.00 0.00 67 1017.1
20260906033142 0 0.0 0.0 0.00 0.00 0.00
20260906032957 60 40 1.0 4.0 0.00 0.00 0.00 67 1017.1
20260906032642 0 0.0 0.0 0.00 0.00 0.00
20260906032457 60 31 1.0 2.0 0.00 0.00 0.00 67 1017.2
20260906032138 0 0.0 0.0 0.00 0.00 0.00
20260906031958 60 45 2.0 3.0 0.00 0.00 0.00 67 1017.2
20260906031638 0 0.0 0.0 0.00 0.00 0.00
20260906031457 60 28 1.0 2.0 0.00 0.00 0.00 67 1017.2
20260906031139 0 0.0 0.0 0.00 0.00 0.00
20260906030957 61 41 2.0 4.0 0.00 0.00 0.00 66 1017.3
20260906030640 0 0.0 0.0 0.00 0.00 0.00
20260906030457 61 210 0.0 2.0 0.00 0.00 0.00 65 1017.3
20260906030138 0 0.0 0.0 0.00 0.00 0.00
20260906025957 62 265 0.0 1.0 0.00 0.00 0.00 64 1017.3
20260906025639 0 0.0 0.0 0.00 0.00 0.00
20260906025457 63 272 0.0 2.0 0.00 0.00 0.00 63 1017.4
20260906025139 0 0.0 0.0 0.00 0.00 0.00
20260906024957 63 324 0.0 0.0 0.00 0.00 0.00 62 1017.4
20260906024457 64 274 1.0 2.0 0.00 0.00 0.00 61 1017.4
20260906024138 0 0.0 0.0 0.00 0.00 0.00
20260906023957 64 235 0.0 0.0 0.00 0.00 0.00 59 1017.4
20260906023639 0 0.0 0.0 0.00 0.00 0.00
20260906023459 64 296 0.0 2.0 0.00 0.00 0.00 59 1017.4
20260906023136 0 0.0 0.0 0.00 0.00 0.00
20260906022958 64 300 2.0 3.0 0.00 0.00 0.00 59 1017.4
20260906022636 0 0.0 0.0 0.00 0.00 0.00
20260906022458 65 306 2.0 4.0 0.00 0.00 0.00 59 1017.3
20260906022137 0 0.0 0.0 0.00 0.00 0.00
20260906021957 65 292 2.0 3.0 0.00 0.00 0.00 58 1017.2
20260906021637 0 0.0 0.0 0.00 0.00 0.00
20260906021458 65 279 1.0 2.0 0.00 0.00 0.00 57 1017.2
20260906021136 0 0.0 0.0 0.00 0.00 0.00
20260906020957 66 283 2.0 3.0 0.00 0.00 0.00 56 1017.1
20260906020637 0 0.0 0.0 0.00 0.00 0.00
20260906020457 66 294 2.0 4.0 0.00 0.00 0.00 56 1017.1
20260906015958 67 284 2.0 4.0 0.00 0.00 0.00 56 1017.0
20260906015637 0 0.0 0.0 0.00 0.00 0.00
20260906015457 67 300 2.0 4.0 0.00 0.00 0.00 55 1017.0
20260906014957 68 265 3.0 4.0 0.00 0.00 0.00 53 1016.9
20260906014636 0 0.0 0.0 0.00 0.00 0.00
20260906014457 68 284 2.0 3.0 0.00 0.00 0.00 53 1016.9
20260906014135 0 0.0 0.0 0.00 0.00 0.00
20260906013957 67 282 2.0 3.0 0.00 0.00 0.00 54 1016.8
20260906013636 0 0.0 0.0 0.00 0.00 0.00
20260906013458 67 291 3.0 4.0 0.00 0.00 0.00 55 1016.8
20260906013135 0 0.0 0.0 0.00 0.00 0.00
20260906012957 68 309 2.0 4.0 0.00 0.00 0.00 55 1016.8
20260906012634 0 0.0 0.0 0.00 0.00 0.00
20260906012457 68 259 1.0 2.0 0.00 0.00 0.00 54 1016.8
20260906012135 0 0.0 0.0 0.00 0.00 0.00
20260906011957 68 279 2.0 4.0 0.00 0.00 0.00 53 1016.7
20260906011635 0 0.0 0.0 0.00 0.00 0.00
20260906011457 68 251 2.0 4.0 0.00 0.00 0.00 53 1016.7
20260906011134 0 0.0 0.0 0.00 0.00 0.00
20260906010957 68 270 3.0 6.0 0.00 0.00 0.00 53 1016.7
20260906010635 0 0.0 0.0 0.00 0.00 0.00
20260906010458 68 269 1.0 3.0 0.00 0.00 0.00 54 1016.7
20260906010136 0 0.0 0.0 0.00 0.00 0.00
20260906005956 67 236 1.0 2.0 0.00 0.00 0.00 54 1016.7
20260906005634 0 0.0 0.0 0.00 0.00 0.00
20260906005458 67 302 2.0 4.0 0.00 0.00 0.00 54 1016.7
20260906005135 0 0.0 0.0 0.00 0.00 0.00
20260906004957 67 298 4.0 5.0 0.00 0.00 0.00 54 1016.7
20260906004635 0 0.0 0.0 0.00 0.00 0.00
20260906004457 67 271 3.0 5.0 0.00 0.00 0.00 53 1016.7
20260906004132 0 0.0 0.0 0.00 0.00 0.00
20260906003957 67 280 4.0 5.0 0.00 0.00 0.00 55 1016.7
20260906003633 0 0.0 0.0 0.00 0.00 0.00
20260906003457 68 299 3.0 6.0 0.00 0.00 0.00 55 1016.6
20260906002957 68 283 2.0 4.0 0.00 0.00 0.00 56 1016.6
20260906002632 0 0.0 0.0 0.00 0.00 0.00
20260906002457 67 298 3.0 5.0 0.00 0.00 0.00 55 1016.6
20260906002132 0 0.0 0.0 0.00 0.00 0.00
20260906001957 67 307 3.0 5.0 0.00 0.00 0.00 58 1016.6
20260906001633 0 0.0 0.0 0.00 0.00 0.00
20260906001457 67 286 4.0 8.0 0.00 0.00 0.00 57 1016.6
20260906001133 0 0.0 0.0 0.00 0.00 0.00
20260906000957 67 291 2.0 7.0 0.00 0.00 0.00 59 1016.6
20260906000633 0 0.0 0.0 0.00 0.00 0.00
20260906000457 66 278 3.0 5.0 0.00 0.00 0.00 58 1016.6
20260906000133 0 0.0 0.0 0.00 0.00 0.00
20260905235957 66 294 3.0 6.0 0.00 0.00 0.00 59 1016.6
20260905235633 0 0.0 0.0 0.00 0.00 0.00
20260905235458 66 299 4.0 6.0 0.00 0.00 0.00 57 1016.6
20260905235133 0 0.0 0.0 0.00 0.00 0.00
20260905234957 66 299 4.0 5.0 0.00 0.00 0.00 58 1016.6
20260905234630 0 0.0 0.0 0.00 0.00 0.00
20260905234457 66 302 3.0 7.0 0.00 0.00 0.00 59 1016.5
20260905234131 0 0.0 0.0 0.00 0.00 0.00
20260905233957 67 277 2.0 5.0 0.00 0.00 0.00 59 1016.5
20260905233630 0 0.0 0.0 0.00 0.00 0.00
20260905233458 67 298 4.0 8.0 0.00 0.00 0.00 59 1016.5
20260905233130 0 0.0 0.0 0.00 0.00 0.00
20260905232958 66 284 2.0 6.0 0.00 0.00 0.00 59 1016.4
20260905232631 0 0.0 0.0 0.00 0.00 0.00
20260905232457 66 290 4.0 6.0 0.00 0.00 0.00 59 1016.4
20260905232130 0 0.0 0.0 0.00 0.00 0.00
20260905231957 67 305 4.0 6.0 0.00 0.00 0.00 59 1016.4
20260905231631 0 0.0 0.0 0.00 0.00 0.00
20260905231457 66 336 2.0 4.0 0.00 0.00 0.00 59 1016.4
20260905231132 0 0.0 0.0 0.00 0.00 0.00
20260905230958 66 276 3.0 6.0 0.00 0.00 0.00 59 1016.4
20260905230457 66 281 4.0 7.0 0.00 0.00 0.00 61 1016.5
20260905225957 66 296 4.0 6.0 0.00 0.00 0.00 59 1016.5
20260905225630 0 0.0 0.0 0.00 0.00 0.00
20260905225457 66 292 3.0 8.0 0.00 0.00 0.00 62 1016.5